Member area
Imprimable
Andenne, 19/03/2017, BEL - Trail de la Primavera
List of reports > 30.2km - Result
Search: Page: [1]
126 Entries
 
Complains are not accepted anymore. Results are final.
PlaceNrNameAgeNATTimeTkmMoy.ScrCity
1.3151ROUCHET François29BEL2:25:114:49 12.481
2.3078PONSARD Julien36BEL2:25:184:49 12.472BREUVANNE
3.3035BENOÎT Thomas35BEL2:38:295:15 11.434
4.3173PORTETELLE Antoine26BEL2:41:475:22 11.206VEDRIN
5.3011COOPMAN Frédéric35BEL2:42:445:24 11.147
6.3170LÉONARD Sindbad21BEL2:43:595:26 11.059HONNAY
7.3217LETESSON Guillaume31BEL2:46:405:32 10.8710PROFONDEVILLE
8.3118GEORIS Sebastien38BEL2:47:115:33 10.8411
9.3221TURF Ewoud33BEL2:49:095:37 10.7116MENEN
10.3053TILMANT Grégoire33BEL2:50:545:40 10.6017HEMPTINNE
11.3021DECAMP Jerome38BEL2:51:225:41 10.5718SART ST LAURENT
12.3286VANDERGEETEN Jeoffrey38BEL2:53:105:45 10.4619WOLUWE SAINT LAMBERT
13.3157LEFER Vincent38BEL2:54:225:47 10.3920VITRIVAL
14.3222VAN ACKER Tom25BEL2:54:435:48 10.3721ROESELARE
15.3047RAES Yann36BEL2:54:495:48 10.3722HARELBEKE
16.3110KERKHOVE Loic32BEL2:56:395:51 10.2625BRUXELLES
17.3058VAN LANDSCHOOT Jonas28BEL2:56:475:52 10.2526PROFONDEVILLE
18.3001OGER Benjamin29BEL2:56:495:52 10.2527
19.3201FRANCK Gérome27BEL2:57:295:53 10.2129BRUXELLES
20.3092DELERS Maximilien31BEL2:57:475:54 10.1930SOIGNIES
21.3218HAZETTE Henri33BEL2:57:555:54 10.1931ELLEZELLES
22.3054LENOBLE Maxence32BEL3:00:295:59 10.0434TOURNAI
23.3215PLEIJSIER Roemer40BEL3:01:376:01 9.9835WAGENINGEN
24.3133HARTERT Julien34BEL3:02:506:04 9.9138BERTRIX
25.3196COLON Jonathan32BEL3:03:506:06 9.8639
26.3279VANDERSTRAETEN Mattias32BEL3:03:536:06 9.8540MOLLEM
27.3083WINKIN Pierre-Yves29BEL3:03:546:06 9.8541FREYLANGE
28.3023DEWANDELEER Bart30BEL3:06:426:11 9.7145GOOIK
29.3339CORIA Denis35BEL3:08:046:14 9.6446JEHAY
30.3313GORTS Hans34BEL3:08:086:14 9.6347GEEL
31.3312HELSEN Steff27BEL3:10:026:18 9.5449WESTERLO
32.3280MENS David23BEL3:10:056:18 9.5350WESTERLO
33.3247GEERAERT Sebastiaan31BEL3:10:106:18 9.5351MENEN
34.3277SCHANK Alexander28BEL3:10:356:19 9.5152VILLERS-LA-VILLE
35.3186HERMAN Grégory40BEL3:10:486:20 9.5053SPONTIN
36.3141LALOYAUX Dorian29BEL3:11:526:22 9.4455ERQUELINNES
37.3121CASTELEIN Bram29BEL3:11:576:22 9.4456LAUWE
38.3010METHENIER Anthony33BEL3:12:076:22 9.4357SAINT _GILLES
39.3129MALCOURANT Cyrille39BEL3:12:236:23 9.4258MORLANWELZ
40.3163COLLIGNON Brieuc28BEL3:14:136:26 9.3360TEMPLOUX
41.3036BENOIT Mathieu32BEL3:15:176:28 9.2861
42.3258JANVIER Philippe38BEL3:15:236:29 9.2762FLÉRON
43.3263DISTEQUE Samuel39BEL3:15:306:29 9.2763HANNUT
44.3055BEGUIN Olivier37BEL3:17:456:33 9.1670BONINNE
45.3319VOLCKAERTS Guy33BEL3:18:316:35 9.1372AARSCHOT
46.3194SACRÉ Rémi31BEL3:19:256:37 9.0973NANINNE
47.3137QUITTELIER Jas27BEL3:20:016:38 9.0676MARCHIN
48.3134MARLIER Sébastien37BEL3:21:056:40 9.0178BOIGNÉE
49.3126MASY Sébastien40BEL3:21:066:40 9.0179WANZE
50.3229LONEZ Thomas35BEL3:21:306:41 8.9982LAUSANNE
51.3026BRILLE Christopher32BEL3:21:316:41 8.9983HOLLAIN
52.3264ANACHKIN Filip30BEL3:21:596:42 8.9785KESSEL-LO
53.3009BADOT Hadrien33BEL3:22:246:43 8.9586NALINNES
54.3202PHILIPPIN Gregory38BEL3:22:286:43 8.9587LANDENNE
55.3051VANHAUWAERT Bert35BEL3:22:296:43 8.9588LAUWE
56.3226FRANÇOIS Jérome31BEL3:23:096:44 8.9294ONHAYE
57.3275VERSLYPE Alan36BEL3:23:166:44 8.9195BIEZ
58.3114THYS Frederic40BEL3:23:216:44 8.9196SEILLES
59.3207BERTRAND Thibaut35BEL3:23:336:45 8.9097BOUGE
60.3006BONNENGE Benjamin34BEL3:23:586:46 8.8899LA LOUVIERE
61.3190LAMBILLON Quentin37BEL3:24:416:47 8.85102VEDRIN
62.3093GEUSE Julien36BEL3:24:586:48 8.84103A
63.3269PAGÈS Nicolas38BEL3:25:156:48 8.83105NANINNE
64.3013PORTUGAL Frederico40BEL3:25:316:49 8.82108BRUXELLES
65.3115SIMONS Christof27BEL3:25:386:49 8.81109A
66.3050MAES Joachim37BEL3:25:596:50 8.80110GULLEGEM
67.3224DETOLLENAERE Damien37BEL3:29:306:57 8.65115HERSEAUX
68.2268VANNESTE Kenny37BEL3:30:546:59 8.59116MENEN
69.3209VANHULST Nicolas33BEL3:31:047:00 8.59117BRAINE L ALLEUD
70.3039DEMARET Frédérik40BEL3:31:297:01 8.57119VILLE EN HESBAYE
71.3164MATAGNE Pierre-Yves34BEL3:31:397:01 8.56120NAMUR
72.3005BONNENGE Jeremy32BEL3:31:507:01 8.55121MORLANWELZ
73.3256LAHAYE Vincent25BEL3:32:417:03 8.52123GREZ-DOICEAU
74.3238ROBYNS Jérôme31BEL3:32:447:03 8.52124WOLUWE-SAINT-LAMBERT
75.3255COUNSON Manuel37BEL3:33:347:05 8.48126AMBERLOUP
76.3203BODSON Cedric39BEL3:34:357:07 8.44127MARNEFFE
77.3254TEMMERMAN Maxime25BEL3:34:427:07 8.44129FERNELMONT
78.3257AMMENDOLA Antonio39BEL3:35:157:08 8.42130SAINT AUBIN
79.3070DAGNEAUX Christophe35BEL3:35:177:08 8.42131NALINNES
80.3282PIMENTA Sergio34BEL3:35:397:09 8.40133TELLANCOURT
81.2267CIRO Claridi34BEL3:35:497:09 8.40134HEULE
82.3160GEORGES Benoit38BEL3:37:517:13 8.32138HAMOIS
83.3025DESTERBECQ Jimmy27BEL3:38:237:14 8.30141ROUCOURT
84.3028CHRISTOPHE Cedric40BEL3:39:257:16 8.26143PELLAINES
85.3007BÉCHADE Rémi28BEL3:40:037:18 8.24146IXELLES
86.3213AERTS Edwin38BEL3:40:207:18 8.22147TILBURG
87.3108VAN GINNEKEN Jorgo35BEL3:41:467:21 8.17153KALMTHOUT
88.3008LECLERCQ Sébastien32BEL3:41:567:21 8.16154BRUXELLES
89.3094CLOSJANS Raphael39BEL3:42:037:22 8.16155CIPLET
90.3228DERCQ Lucas27BEL3:42:517:23 8.13158NALINNES
91.3124HELAIN Michael34BEL3:42:547:23 8.13159WANZE
92.3150BADO Mathieu34BEL3:43:057:24 8.12161LES ISNES
93.3283CONROTTE Vincent34BEL3:43:107:24 8.12162VIRTON
94.3171JUNION Steve35BEL3:43:137:24 8.12163EGHEZEE
95.3181BOONE Francois40BEL3:45:327:29 8.03169SCLAYN
96.3183DIEUDONNE Gilles33BEL3:48:117:34 7.94174LOYERS
97.3116SCHEERS Michael33BEL3:48:177:34 7.94176COUTHUIN
98.3261JAARSMA Marcel37BEL3:50:037:38 7.88179WAGENINGEN
99.3187RADART Gregory40BEL3:50:097:38 7.87180NAMUR
100.3245GUILLAUME Jean-Michel38BEL3:51:527:41 7.82186LANTREMANGE
101.3191LAMBERT Bertrand39BEL3:52:307:42 7.79188
102.3241GOFFOY Thomas31BEL3:52:587:43 7.78191MALONNE
103.3100D'HAUWE Patrick40BEL3:53:077:44 7.77193JAMIOULX
104.3132LEJEUNE Pierre-Yves37BEL3:54:427:47 7.72196BERTRIX
105.3317LEBAILLY Francois27BEL3:54:587:47 7.71197GRANDCOURT
106.3276SWERTS Nicolas40BEL3:55:037:47 7.71198VYLE-THAROUL
107.3043READY Patrice36BEL3:55:357:49 7.69199ZWEVEGEM
108.3045VERDONCK Bruno31BEL3:55:387:49 7.69200ZWEVEGM
109.3060GONSETTE Charles-Etienne33BEL3:55:417:49 7.69201MONS
110.3177COUPAIN Philippe36BEL3:58:337:54 7.60212HAM-SUR-HEURE
111.3311CASTELIN Pierre40BEL3:58:457:55 7.59214BLATON
112.3061KONSTANTINIDIS Stephanos39BEL4:05:368:08 7.38224BON-SECOURS
113.3234GRANDMAISON Gregory35BEL4:06:058:09 7.36225ENGIS
114.3316CULOT Lionel37BEL4:09:248:16 7.27233ANDERLECHT
115.3158HOOLANS Benoit36BEL4:11:598:21 7.19236DION-VALMONT
116.3123LOUIS Gerald40BEL4:14:188:26 7.13241BERTRIX
117.3128CUNIN Nicolas37BEL4:14:298:26 7.12244PROFONDEVILLE
118.3178VAEL Guillaume36BEL4:18:218:34 7.01250BOUFFIOULX
119.3107BUHMANN Sven39BEL4:20:118:37 6.96254HULST
120.3252HIERTZ Michel25BEL4:21:048:39 6.94257AWIRS
121.3240DEJONGHE Simon29BEL4:21:488:41 6.92259BERCHEM
122.3266GYEN Michaël40BEL4:26:088:49 6.81268VILLERS-LE-BOUILLET
123.3071WELLIQUET Philippe35BEL4:28:398:54 6.75272HERMALLE-SOUS-HUY
124.3072LIÉNARD Cédric39BEL4:28:428:54 6.74273IVOZ-RAMET
125.3117THYS Fabian40BEL4:37:299:12 6.53281HUY
126.3172VAN YCK Christophe39BEL4:37:359:12 6.53282GELBRESSÉE
DNF: did not finish; DSQ: disqualified; Speed in km/h
Page: [1]